Lid_Strength_Index
13 14 14 15 15 16 16 16 15 16 16 16 16 16 16 16 16 16 16 16 16 15
14 14 15 16 16 16 16 16 16 17 17 17 17 17 17 17 17 16 16 16 15 15
15 15 15 16 17 17 17 17 17 18 17 17 17 17 17 17 17 17 17 16 16 15
16 16 16 17 17 17 17 18 18 18 18 18 18 18 18 18 18 18 17 17 17 17
16 17 18 18 18 18 19 18 18 19 19 19 19 19 19 19 19 19 19 18 18 18
17 18 19 19 19 19 19 19 19 19 20 20 20 20 20 19 19 19 19 19 18 18
19 19 19 19 20 20 20 20 20 20 20 20 20 20 20 20 20 19 19 18 17 17
19 19 20 20 20 20 20 20 20 21 21 21 20 20 20 19 19 19 18 17 17 17
20 21 21 21 21 21 21 21 21 21 21 21 20 19 18 18 19 18 19 18 17 16
21 21 21 21 22 22 22 21 22 21 21 21 21 19 18 18 18 18 18 18 17 17
21 22 22 22 23 22 22 22 22 21 21 22 21 19 18 17 18 18 18 17 16 16
21 22 23 23 23 22 22 22 22 22 22 23 23 20 18 17 18 18 17 16 15 16
22 23 23 23 23 22 22 23 22 23 23 22 22 19 18 17 17 18 17 16 15 15
23 24 23 23 23 24 24 23 24 24 22 21 20 20 17 16 16 16 16 17 18 16